Weather observations for the past three days for
Rhode Island TF Green International Airport
Imperial (Metric)
Date Time (edt) Wind (mph) Vis. (mi.) Weather Sky Cond. Temperature (ºF) Relative Humidity Wind Chill (°F) Heat Index (°F) Pressure Precipitation (in)
Air Dwpt 6 hour altimeter (in) sea level (mb) 1 hr 3 hr 6 hr
Max. Min.
19 01:51 S 8 10.00 Fair CLR 69.1 59 78.1 69.1 70% 30.29 1025.6
19 00:51 SW 9 10.00 Fair CLR 70 60.1 71% 30.28 1025.4
18 23:51 SW 6 10.00 A Few Clouds FEW250 71.1 60.1 68% 30.29 1025.5
18 22:51 SW 9 10.00 A Few Clouds FEW250 72 62.1 71% 30.27 1025.1
18 21:51 SW 8 10.00 A Few Clouds FEW250 72 63 73% 30.28 1025.1
18 20:51 S 8 10.00 Partly Cloudy FEW120 SCT250 73.9 64.9 74% 30.25 1024.2
18 19:51 S 12 10.00 Partly Cloudy SCT250 78.1 66.9 90 78.1 69% 80 30.24 1023.9
18 18:51 S 14 10.00 Partly Cloudy SCT250 82 69.1 65% 85 30.22 1023.1
18 17:51 SW 12 10.00 Partly Cloudy SCT250 84.9 71.1 63% 90 30.22 1023.1
18 16:51 S 14 G 20 10.00 Partly Cloudy SCT250 87.1 71.1 59% 93 30.21 1023.0
18 15:51 W 14 10.00 Partly Cloudy FEW040 SCT250 89.1 71.1 55% 95 30.22 1023.1
18 14:51 SW 15 G 24 10.00 Partly Cloudy FEW040 SCT250 88 70 55% 93 30.21 1023.0
18 13:51 S 16 10.00 Mostly Cloudy FEW040 BKN300 89.1 71.1 89.1 72 55% 95 30.22 1023.1
18 12:51 SW 10 10.00 Mostly Cloudy FEW035 BKN300 88 72 59% 95 30.22 1023.4
18 11:51 SE 10 10.00 Mostly Cloudy BKN300 84 72 67% 90 30.24 1023.8
18 10:51 SW 9 10.00 Mostly Cloudy FEW150 FEW250 BKN300 84 70 63% 88 30.24 1024.0
18 09:51 W 6 10.00 Mostly Cloudy FEW075 FEW250 BKN300 80.1 69.1 69% 83 30.24 1024.0
18 08:51 SW 7 10.00 Mostly Cloudy FEW075 FEW250 BKN300 75 66.9 76% 76 30.24 1023.9
18 07:51 SW 5 10.00 Mostly Cloudy BKN070 BKN300 72 64.9 72 64 79% 30.23 1023.7
18 06:51 SW 5 10.00 Mostly Cloudy BKN070 BKN300 69.1 64.9 87% 30.22 1023.3
18 05:51 S 5 10.00 Fair CLR 64.9 64 97% 30.21 1023.0
18 04:51 S 5 10.00 Fair CLR 64.9 63 93% 30.19 1022.1
18 03:51 S 3 10.00 Fair CLR 64.9 63 93% 30.18 1021.8
18 02:51 S 5 10.00 Fair CLR 64.9 63 93% 30.17 1021.6
18 01:51 S 6 10.00 Fair CLR 66 63 71.1 66 90% 30.18 1021.9
18 00:51 S 7 10.00 Fair CLR 66 63 90% 30.18 1021.9
17 23:51 SW 6 10.00 Partly Cloudy FEW100 SCT250 66 62.1 87% 30.19 1022.2
17 22:51 S 9 10.00 Partly Cloudy SCT090 SCT250 66.9 62.1 84% 30.2 1022.4
17 21:51 S 9 10.00 Partly Cloudy SCT100 SCT250 68 62.1 81% 30.19 1022.3
17 20:51 S 7 10.00 Mostly Cloudy SCT180 BKN250 69.1 62.1 78% 30.18 1021.9
17 19:51 S 9 10.00 Mostly Cloudy FEW180 SCT200 BKN250 71.1 61 80.1 71.1 71% 30.17 1021.7
17 18:51 S 10 10.00 Mostly Cloudy FEW130 SCT180 BKN200 73 62.1 69% 30.16 1021.2
17 17:51 S 16 G 22 10.00 Mostly Cloudy SCT130 BKN180 BKN200 73.9 61 64% 30.15 1021.1
17 16:51 S 12 G 24 10.00 Mostly Cloudy FEW160 BKN180 BKN210 75.9 60.1 58% 78 30.15 1021.0
17 15:51 S 16 10.00 Mostly Cloudy FEW060 BKN180 BKN200 78.1 62.1 58% 80 30.16 1021.1
17 14:51 S 16 10.00 Mostly Cloudy FEW025 FEW060 SCT150 BKN250 79 61 54% 80 30.17 1021.5
17 13:51 S 17 G 23 10.00 Mostly Cloudy FEW025 FEW065 FEW250 BKN300 78.1 61 78.1 64.9 56% 80 30.19 1022.2
17 12:51 S 15 10.00 Mostly Cloudy FEW025 FEW065 FEW250 BKN300 75 63 66% 77 30.18 1022.0
17 11:51 SE 15 10.00 Mostly Cloudy FEW025 FEW065 FEW230 BKN300 73 62.1 69% 30.2 1022.7
17 10:51 S 13 10.00 Mostly Cloudy FEW020 FEW065 FEW150 BKN300 73 63 71% 30.23 1023.6
17 09:51 SE 13 10.00 Mostly Cloudy FEW020 FEW065 FEW150 BKN300 72 62.1 71% 30.24 1023.9
17 08:51 S 10 10.00 Partly Cloudy FEW015 FEW150 SCT250 69.1 60.1 73% 30.25 1024.3
17 07:51 S 10 10.00 Partly Cloudy FEW010 FEW130 FEW150 SCT250 64.9 59 64.9 55 81% 30.26 1024.7
17 06:51 SW 6 10.00 Mostly Cloudy FEW130 SCT150 BKN250 61 57.9 90% 30.25 1024.5
17 05:51 SW 3 7.00 Mostly Cloudy FEW130 SCT150 BKN250 55.9 55 97% 30.25 1024.2
17 04:51 Calm 10.00 Fair CLR 57 55 93% 30.24 1024.1
17 03:51 SW 5 10.00 Fair CLR 55.9 54 93% 30.24 1024.0
17 02:51 SW 5 10.00 Fair CLR 57 53.1 87% 30.24 1024.0
17 01:51 SW 6 10.00 Fair CLR 59 53.1 64.9 57.9 81% 30.24 1024.0
17 00:51 SW 7 10.00 Fair CLR 60.1 54 80% 30.24 1024.1
16 23:51 SW 5 10.00 Mostly Cloudy SCT120 BKN180 60.1 55 84% 30.24 1024.1
16 22:51 SW 5 10.00 Mostly Cloudy SCT150 BKN250 57.9 53.1 84% 30.24 1024.2
16 21:51 SW 6 10.00 Mostly Cloudy FEW150 SCT200 BKN250 60.1 54 80% 30.25 1024.3
16 20:51 S 9 10.00 Mostly Cloudy FEW150 BKN200 BKN250 62.1 53.1 73% 30.24 1024.1
16 19:51 S 10 10.00 Mostly Cloudy FEW120 SCT180 BKN230 64.9 53.1 73 64.9 66% 30.24 1024.0
16 18:51 S 10 10.00 Mostly Cloudy FEW120 SCT180 BKN250 66.9 54 63% 30.23 1023.6
16 17:51 S 15 10.00 Mostly Cloudy FEW120 SCT180 BKN240 68 50 53% 30.22 1023.3
16 16:51 S 14 10.00 Mostly Cloudy FEW055 SCT180 BKN250 71.1 50 47% 30.23 1023.6
16 15:51 SE 13 10.00 Mostly Cloudy BKN250 72 48.9 44% 30.23 1023.6
16 14:51 E 7 10.00 Mostly Cloudy BKN250 72 46 40% 30.23 1023.8
16 13:51 Vrbl 5 10.00 Partly Cloudy SCT250 71.1 46 71.1 63 41% 30.24 1024.1
16 12:51 Vrbl 6 10.00 Partly Cloudy SCT250 71.1 46 41% 30.25 1024.4
16 11:51 Vrbl 6 10.00 Partly Cloudy SCT250 69.1 44.1 41% 30.27 1024.9
16 10:51 Vrbl 6 10.00 A Few Clouds FEW250 68 44.1 42% 30.27 1025.0
16 09:51 Vrbl 3 10.00 A Few Clouds FEW250 66 44.1 45% 30.28 1025.3
16 08:51 N 8 10.00 A Few Clouds FEW250 64.9 44.1 47% 30.27 1025.1
16 07:51 N 6 10.00 A Few Clouds FEW250 63 46 63 54 54% 30.26 1024.7
16 06:51 N 7 10.00 A Few Clouds FEW250 57.9 45 62% 30.25 1024.1
16 05:51 N 8 10.00 A Few Clouds FEW250 55.9 45 67% 30.22 1023.1
16 04:51 N 6 10.00 Fair CLR 55 44.1 67% 30.2 1022.4
16 03:51 NW 5 10.00 Fair CLR 57 44.1 62% 30.18 1021.9
16 02:51 NW 6 10.00 Fair CLR 57.9 45 62% 30.17 1021.4
Date Time (edt) Wind (mph) Vis. (mi.) Weather Sky Cond. Air Dwpt Max. Min. Relative Humidity Wind Chill (°F) Heat Index (°F) altimeter (in) sea level (mb) 1 hr 3 hr 6 hr
6 hour
Temperature (ºF) Pressure Precipitation (in)